Location: Slave Lake
(55.2830°N, 114.7830°W)
Time: 19:50:43
(UTC-06:00)

Amateur Radio Satellites - All Passes

Search period start: 31 October 2014 19:20
Search period end: 01 November 2014 19:20
Location: Slave Lake, 55.2830°N, 114.7830°W

Satellite Date Start Highest point End Downlink Frequencies (MHz)
Time Altitude Azimuth
STRAND 1 31 Oct 19:38:02 19:42:07 23° 90° (E) 19:46:11 ?
HO-68 31 Oct 19:58:14 20:04:40 38° 52° (NE) 20:11:09 435.675 MHz FM
RS-15 31 Oct 19:58:47 20:03:01 13° 91° (E) 20:07:13 29.354 - 29.394 USB, Beacon 29.352 USB
Hamsat 31 Oct 20:00:22 20:02:35 14° 274° (W) 20:04:49 145.90 MHz
JAS-2 31 Oct 20:16:30 20:20:50 18° 283° (WNW) 20:25:27 435.800 - 435.900 CW/SSB, 435.910 FM
SO-50 31 Oct 20:17:36 20:22:19 56° 230° (SW) 20:27:05 436.795 FM
KITSAT 1 31 Oct 20:17:43 20:25:48 75° 232° (SW) 20:33:51 435.175 FM
UKube-1 31 Oct 20:31:39 20:34:16 16° 51° (NE) 20:36:54 145.840 MHz, 145.915 MHz
SO-67 31 Oct 20:35:31 20:38:24 24° 266° (W) 20:41:18 435.3500 MHz FM
ZACube-1 31 Oct 20:43:58 20:44:13 10° 47° (NE) 20:44:27 437.345 MHz
OPAL 31 Oct 20:59:11 21:03:19 27° 307° (NW) 21:07:26 ?
UOSAT-12 31 Oct 20:59:22 21:04:08 68° 38° (NE) 21:08:50 437.025 FM, 437.400 FM
Oscar 11 31 Oct 21:05:11 21:08:39 24° 59° (ENE) 21:12:07 145.825 FM, Beacon 2401.500 USB
STRAND 1 31 Oct 21:16:41 21:21:51 72° 291° (WNW) 21:26:58 ?
FUNcube-1 31 Oct 21:23:22 21:26:29 19° 56° (NE) 21:29:35 145.950 - 145.970 MHz USB
HO-68 31 Oct 21:44:52 21:52:02 70° 254° (WSW) 21:59:15 435.675 MHz FM
SO-50 31 Oct 22:00:04 22:01:58 12° 250° (WSW) 22:03:52 436.795 FM
RS-15 31 Oct 22:02:02 22:12:16 49° 116° (ESE) 22:22:32 29.354 - 29.394 USB, Beacon 29.352 USB
UKube-1 31 Oct 22:05:27 22:09:49 79° 72° (ENE) 22:14:13 145.840 MHz, 145.915 MHz
KITSAT 1 31 Oct 22:13:59 22:20:01 24° 255° (WSW) 22:26:03 435.175 FM
ZACube-1 31 Oct 22:15:22 22:19:39 45° 67° (ENE) 22:23:51 437.345 MHz
UOSAT-12 31 Oct 22:39:53 22:44:01 30° 239° (WSW) 22:48:06 437.025 FM, 437.400 FM
Oscar 11 31 Oct 22:40:17 22:44:33 58° 259° (WSW) 22:48:50 145.825 FM, Beacon 2401.500 USB
STRAND 1 31 Oct 22:56:55 23:00:16 18° 312° (NW) 23:03:37 ?
FUNcube-1 31 Oct 22:57:54 23:02:24 82° 255° (WSW) 23:06:50 145.950 - 145.970 MHz USB
MaSat-1 31 Oct 22:59:52 23:03:02 27° 117° (ESE) 23:05:55 437.345 MHz
HO-68 31 Oct 23:36:22 23:41:06 18° 277° (W) 23:45:53 435.675 MHz FM
UKube-1 31 Oct 23:43:42 23:46:34 17° 271° (W) 23:49:26 145.840 MHz, 145.915 MHz
ZACube-1 31 Oct 23:52:17 23:56:13 29° 266° (W) 00:00:06 437.345 MHz
RS-15 01 Nov 00:13:11 00:24:09 76° 324° (NW) 00:35:17 29.354 - 29.394 USB, Beacon 29.352 USB
MaSat-1 01 Nov 00:34:57 00:38:20 39° 313° (NW) 00:41:23 437.345 MHz
FUNcube-1 01 Nov 00:37:15 00:39:29 14° 275° (W) 00:41:42 145.950 - 145.970 MHz USB
PCSat 01 Nov 02:01:25 02:03:25 12° 102° (ESE) 02:05:25 145.825 MHz
JAS-1B 01 Nov 02:03:57 02:09:32 25° 89° (E) 02:15:52 435.800 - 435.900 CW/SSB
Oscar 19 01 Nov 02:10:36 02:14:19 20° 88° (E) 02:18:01 437.125 CW, 437.150 USB
MaSat-1 01 Nov 02:13:39 02:14:27 11° 334° (NNW) 02:15:14 437.345 MHz
RS-15 01 Nov 02:27:30 02:38:09 53° 356° (N) 02:49:04 29.354 - 29.394 USB, Beacon 29.352 USB
AO-27 01 Nov 02:48:32 02:52:12 19° 87° (E) 02:55:51 436.795 MHz FM
Oscar 16 01 Nov 02:57:09 03:02:03 43° 98° (E) 03:06:56 437.025 USB, Beacon 2401.1428
Gurwin Techsat 1B 01 Nov 03:07:44 03:11:03 16° 85° (E) 03:14:20 435.225 FM
TMSAT-1 01 Nov 03:14:01 03:16:50 14° 83° (E) 03:19:38 436.925 FM
Sapphire 01 Nov 03:19:15 03:24:13 39° 118° (ESE) 03:29:14 437.095 MHz 1200 baud AX-25 AFSK
AO-Echo 01 Nov 03:26:49 03:31:58 45° 98° (E) 03:37:02 ?
OPAL 01 Nov 03:27:52 03:30:26 14° 41° (NE) 03:32:59 ?
Uribyol 2 01 Nov 03:31:17 03:36:11 39° 97° (E) 03:41:01 436.500 FM
ITAMSAT 1 01 Nov 03:39:23 03:44:23 42° 98° (E) 03:49:19 435.822 SSB
PCSat 01 Nov 03:40:26 03:45:42 55° 123° (ESE) 03:51:01 145.825 MHz
Oscar 19 01 Nov 03:49:10 03:54:19 82° 288° (WNW) 03:59:27 437.125 CW, 437.150 USB
AO-7 01 Nov 03:51:55 03:54:41 12° 75° (ENE) 03:57:27 29.400 - 29.500 MHz
JAS-1B 01 Nov 03:54:07 04:00:53 90° 110° (ESE) 04:09:02 435.800 - 435.900 CW/SSB
AO-27 01 Nov 04:27:10 04:32:27 88° 287° (WNW) 04:37:41 436.795 MHz FM
Oscar 16 01 Nov 04:36:40 04:41:25 39° 298° (WNW) 04:46:09 437.025 USB, Beacon 2401.1428
RS-15 01 Nov 04:41:30 04:52:29 66° 28° (NNE) 05:03:50 29.354 - 29.394 USB, Beacon 29.352 USB
Gurwin Techsat 1B 01 Nov 04:46:32 04:51:54 81° 106° (ESE) 04:57:14 435.225 FM
TMSAT-1 01 Nov 04:52:25 04:57:45 71° 104° (ESE) 05:03:03 436.925 FM
Sapphire 01 Nov 05:02:09 05:07:31 59° 320° (NW) 05:12:55 437.095 MHz 1200 baud AX-25 AFSK
OPAL 01 Nov 05:03:26 05:08:21 52° 63° (ENE) 05:13:14 ?
AO-Echo 01 Nov 05:05:45 05:10:42 40° 298° (WNW) 05:15:36 ?
Uribyol 2 01 Nov 05:10:49 05:15:45 44° 297° (WNW) 05:20:39 436.500 FM
ITAMSAT 1 01 Nov 05:19:01 05:23:54 41° 298° (WNW) 05:28:45 435.822 SSB
Uosat F 01 Nov 05:19:21 05:23:27 24° 91° (E) 05:27:32 435.120 FM
PCSat 01 Nov 05:24:06 05:29:19 46° 326° (NW) 05:34:34 145.825 MHz
STRAND 1 01 Nov 05:24:27 05:27:38 17° 47° (NE) 05:30:49 ?
JAS-2 01 Nov 05:29:24 05:34:56 20° 80° (E) 05:40:24 435.800 - 435.900 CW/SSB, 435.910 FM
Oscar 19 01 Nov 05:29:25 05:33:00 20° 309° (NW) 05:36:35 437.125 CW, 437.150 USB
AO-7 01 Nov 05:41:50 05:49:51 48° 100° (E) 05:57:49 29.400 - 29.500 MHz
JAS-1B 01 Nov 05:45:33 05:51:01 28° 308° (NW) 05:57:16 435.800 - 435.900 CW/SSB
Hamsat 01 Nov 06:02:44 06:03:18 10° 83° (E) 06:03:51 145.90 MHz
AO-27 01 Nov 06:07:29 06:11:21 21° 309° (NW) 06:15:13 436.795 MHz FM
Oscar 16 01 Nov 06:18:26 06:19:31 11° 320° (NW) 06:20:36 437.025 USB, Beacon 2401.1428
Gurwin Techsat 1B 01 Nov 06:27:10 06:31:23 24° 306° (NW) 06:35:35 435.225 FM
TMSAT-1 01 Nov 06:32:54 06:37:17 27° 305° (NW) 06:41:40 436.925 FM
Saudisat 1A 01 Nov 06:36:33 06:40:14 27° 121° (ESE) 06:43:58 436.775 MHz
OPAL 01 Nov 06:42:57 06:47:29 32° 262° (W) 06:51:59 ?
AO-Echo 01 Nov 06:46:36 06:48:11 11° 320° (NW) 06:49:45 ?
Sapphire 01 Nov 06:47:22 06:51:59 27° 344° (NNW) 06:56:37 437.095 MHz 1200 baud AX-25 AFSK
Uribyol 2 01 Nov 06:52:07 06:54:03 12° 319° (NW) 06:55:59 436.500 FM
RS-15 01 Nov 06:54:14 07:05:05 64° 236° (SW) 07:16:22 29.354 - 29.394 USB, Beacon 29.352 USB
Uosat F 01 Nov 06:57:40 07:02:43 67° 292° (WNW) 07:07:43 435.120 FM
ITAMSAT 1 01 Nov 07:00:32 07:02:09 11° 320° (NW) 07:03:46 435.822 SSB
STRAND 1 01 Nov 07:00:53 07:05:59 66° 68° (ENE) 07:11:08 ?
MaSat-1 01 Nov 07:01:45 07:04:20 40° 47° (NE) 07:06:43 437.345 MHz
PCSat 01 Nov 07:09:32 07:14:00 25° 350° (N) 07:18:28 145.825 MHz
JAS-2 01 Nov 07:13:29 07:21:21 69° 102° (ESE) 07:29:05 435.800 - 435.900 CW/SSB, 435.910 FM
AO-7 01 Nov 07:34:48 07:42:56 60° 302° (WNW) 07:51:03 29.400 - 29.500 MHz
Hamsat 01 Nov 07:35:52 07:40:05 67° 102° (ESE) 07:44:19 145.90 MHz
SO-67 01 Nov 07:51:35 07:53:46 16° 89° (E) 07:55:56 435.3500 MHz FM
Saudisat 1A 01 Nov 08:15:07 08:19:30 70° 322° (NW) 08:23:56 436.775 MHz
Sapphire 01 Nov 08:32:34 08:37:03 25° 10° (N) 08:41:31 437.095 MHz 1200 baud AX-25 AFSK
Uosat F 01 Nov 08:37:35 08:40:41 17° 313° (NW) 08:43:46 435.120 FM
MaSat-1 01 Nov 08:37:56 08:39:21 14° 249° (WSW) 08:40:42 437.345 MHz
STRAND 1 01 Nov 08:41:25 08:45:38 25° 269° (W) 08:49:54 ?
PCSat 01 Nov 08:54:24 08:59:02 27° 16° (NNE) 09:03:40 145.825 MHz
JAS-2 01 Nov 08:58:52 09:06:00 41° 304° (NW) 09:13:09 435.800 - 435.900 CW/SSB, 435.910 FM
HO-68 01 Nov 09:05:38 09:10:04 17° 82° (E) 09:14:28 435.675 MHz FM
RS-15 01 Nov 09:07:44 09:15:13 21° 262° (W) 09:22:55 29.354 - 29.394 USB, Beacon 29.352 USB
Hamsat 01 Nov 09:12:32 09:15:40 21° 302° (WNW) 09:18:49 145.90 MHz
SO-67 01 Nov 09:23:40 09:27:04 56° 289° (WNW) 09:30:27 435.3500 MHz FM
AO-7 01 Nov 09:28:02 09:34:17 25° 327° (NNW) 09:40:32 29.400 - 29.500 MHz
Saudisat 1A 01 Nov 09:55:52 09:59:44 29° 345° (NNW) 10:03:38 436.775 MHz
Sapphire 01 Nov 10:16:28 10:21:43 46° 35° (NE) 10:26:58 437.095 MHz 1200 baud AX-25 AFSK
Oscar 11 01 Nov 10:21:22 10:24:09 17° 88° (E) 10:26:56 145.825 FM, Beacon 2401.500 USB
PCSat 01 Nov 10:38:05 10:43:29 60° 41° (NE) 10:48:51 145.825 MHz
FUNcube-1 01 Nov 10:41:31 10:43:08 12° 84° (E) 10:44:43 145.950 - 145.970 MHz USB
JAS-2 01 Nov 10:44:46 10:49:11 17° 327° (NNW) 10:53:39 435.800 - 435.900 CW/SSB, 435.910 FM
HO-68 01 Nov 10:52:03 10:59:15 66° 104° (ESE) 11:06:23 435.675 MHz FM
KITSAT 1 01 Nov 10:55:09 11:01:34 27° 107° (ESE) 11:07:59 435.175 FM
ISS 01 Nov 11:02:22 11:03:43 12° 144° (SE) 11:05:05 145.800 FM
JAS-1B 01 Nov 11:13:20 11:14:56 11° 30° (NNE) 11:16:33 435.800 - 435.900 CW/SSB
AO-7 01 Nov 11:20:10 11:24:20 15° 354° (N) 11:28:30 29.400 - 29.500 MHz
UKube-1 01 Nov 11:22:27 11:26:45 52° 101° (E) 11:31:00 145.840 MHz, 145.915 MHz
ZACube-1 01 Nov 11:33:35 11:37:27 33° 95° (E) 11:41:15 437.345 MHz
Saudisat 1A 01 Nov 11:36:43 11:40:27 26° 9° (N) 11:44:12 436.775 MHz
Oscar 11 01 Nov 11:56:34 12:00:54 78° 287° (WNW) 12:05:13 145.825 FM, Beacon 2401.500 USB
Oscar 19 01 Nov 11:58:14 12:00:57 15° 46° (NE) 12:03:40 437.125 CW, 437.150 USB
Sapphire 01 Nov 12:00:01 12:05:20 54° 237° (WSW) 12:10:36 437.095 MHz 1200 baud AX-25 AFSK
FUNcube-1 01 Nov 12:16:02 12:20:18 79° 104° (ESE) 12:24:28 145.950 - 145.970 MHz USB
SO-50 01 Nov 12:19:08 12:23:24 41° 125° (SE) 12:27:49 436.795 FM
PCSat 01 Nov 12:21:46 12:26:45 38° 242° (WSW) 12:31:43 145.825 MHz
ISS 01 Nov 12:36:41 12:39:42 32° 163° (SSE) 12:42:44 145.800 FM
AO-27 01 Nov 12:37:11 12:40:02 15° 45° (NE) 12:42:53 436.795 MHz FM
HO-68 01 Nov 12:40:07 12:46:42 40° 307° (NW) 12:53:15 435.675 MHz FM
Oscar 16 01 Nov 12:43:24 12:47:40 27° 56° (NE) 12:51:56 437.025 USB, Beacon 2401.1428
KITSAT 1 01 Nov 12:47:52 12:55:57 82° 130° (SE) 13:04:04 435.175 FM
JAS-1B 01 Nov 12:58:44 13:03:50 36° 56° (NE) 13:09:14 435.800 - 435.900 CW/SSB
UOSAT-12 01 Nov 12:58:58 13:01:43 16° 112° (ESE) 13:04:29 437.025 FM, 437.400 FM
UKube-1 01 Nov 12:59:02 13:02:43 27° 301° (WNW) 13:06:23 145.840 MHz, 145.915 MHz
Gurwin Techsat 1B 01 Nov 12:59:16 13:01:47 14° 43° (NE) 13:04:17 435.225 FM
TMSAT-1 01 Nov 13:05:33 13:07:33 12° 41° (NE) 13:09:32 436.925 FM
AO-7 01 Nov 13:08:57 13:14:07 19° 22° (NNE) 13:19:17 29.400 - 29.500 MHz
AO-Echo 01 Nov 13:09:35 13:13:44 25° 55° (NE) 13:17:58 ?
ZACube-1 01 Nov 13:10:01 13:13:55 36° 296° (WNW) 13:17:44 437.345 MHz
Saudisat 1A 01 Nov 13:16:34 13:20:54 49° 32° (NNE) 13:25:13 436.775 MHz
Uribyol 2 01 Nov 13:18:23 13:22:40 26° 55° (NE) 13:26:57 436.500 FM
ITAMSAT 1 01 Nov 13:26:29 13:30:53 28° 56° (NE) 13:35:17 435.822 SSB
Oscar 11 01 Nov 13:33:57 13:36:26 15° 308° (NW) 13:38:55 145.825 FM, Beacon 2401.500 USB
Oscar 19 01 Nov 13:34:20 13:39:21 57° 67° (ENE) 13:44:23 437.125 CW, 437.150 USB
Sapphire 01 Nov 13:45:44 13:47:37 12° 258° (WSW) 13:49:29 437.095 MHz 1200 baud AX-25 AFSK
FUNcube-1 01 Nov 13:53:18 13:56:12 18° 305° (NW) 13:59:03 145.950 - 145.970 MHz USB
SO-50 01 Nov 13:59:24 14:03:55 53° 327° (NNW) 14:08:35 436.795 FM
JAS-2 01 Nov 14:11:50 14:13:02 10° 17° (NNE) 14:14:14 435.800 - 435.900 CW/SSB, 435.910 FM
ISS 01 Nov 14:12:50 14:16:02 44° 182° (S) 14:19:15 145.800 FM
AO-27 01 Nov 14:13:28 14:18:34 56° 66° (ENE) 14:23:43 436.795 MHz FM
Oscar 16 01 Nov 14:21:33 14:26:41 67° 257° (WSW) 14:31:50 437.025 USB, Beacon 2401.1428
HO-68 01 Nov 14:28:41 14:32:39 16° 331° (NNW) 14:36:37 435.675 MHz FM
Gurwin Techsat 1B 01 Nov 14:35:32 14:40:39 49° 65° (ENE) 14:45:47 435.225 FM
UOSAT-12 01 Nov 14:36:26 14:41:06 70° 133° (SE) 14:45:50 437.025 FM, 437.400 FM
TMSAT-1 01 Nov 14:41:16 14:46:16 43° 63° (ENE) 14:51:17 436.925 FM
KITSAT 1 01 Nov 14:44:15 14:52:03 49° 336° (NNW) 14:59:53 435.175 FM
AO-Echo 01 Nov 14:46:57 14:52:02 75° 256° (WSW) 14:57:19 ?
JAS-1B 01 Nov 14:48:55 14:54:26 52° 260° (W) 15:00:15 435.800 - 435.900 CW/SSB
Saudisat 1A 01 Nov 14:56:16 15:00:28 43° 233° (SW) 15:04:39 436.775 MHz
Uribyol 2 01 Nov 14:56:31 15:01:44 73° 255° (WSW) 15:07:00 436.500 FM
AO-7 01 Nov 14:57:23 15:04:49 39° 47° (NE) 15:12:18 29.400 - 29.500 MHz
Uosat F 01 Nov 15:03:22 15:06:32 17° 48° (NE) 15:09:41 435.120 FM
ITAMSAT 1 01 Nov 15:04:50 15:10:02 67° 257° (WSW) 15:15:17 435.822 SSB
Oscar 19 01 Nov 15:14:35 15:19:02 29° 267° (W) 15:23:29 437.125 CW, 437.150 USB
SO-50 01 Nov 15:41:19 15:45:22 28° 351° (N) 15:49:32 436.795 FM
ISS 01 Nov 15:49:28 15:52:20 27° 202° (SSW) 15:55:11 145.800 FM
JAS-2 01 Nov 15:50:17 15:55:28 23° 42° (NE) 16:01:00 435.800 - 435.900 CW/SSB, 435.910 FM
AO-27 01 Nov 15:53:50 15:58:24 30° 267° (W) 16:03:01 436.795 MHz FM
Oscar 16 01 Nov 16:04:43 16:07:03 13° 277° (W) 16:09:23 437.025 USB, Beacon 2401.1428
Gurwin Techsat 1B 01 Nov 16:15:58 16:20:49 35° 265° (W) 16:25:42 435.225 FM
UOSAT-12 01 Nov 16:17:09 16:21:36 39° 335° (NNW) 16:26:05 437.025 FM, 437.400 FM
TMSAT-1 01 Nov 16:21:17 16:26:16 40° 263° (W) 16:31:17 436.925 FM
AO-Echo 01 Nov 16:28:58 16:31:47 15° 277° (W) 16:34:39 ?
Uribyol 2 01 Nov 16:39:22 16:42:10 14° 276° (W) 16:45:00 436.500 FM
Uosat F 01 Nov 16:39:31 16:44:31 69° 69° (ENE) 16:49:34 435.120 FM
KITSAT 1 01 Nov 16:41:45 16:49:16 39° 5° (N) 16:56:47 435.175 FM
ITAMSAT 1 01 Nov 16:48:09 16:50:35 13° 277° (W) 16:53:01 435.822 SSB
AO-7 01 Nov 16:48:50 16:57:08 78° 251° (WSW) 17:05:30 29.400 - 29.500 MHz
Hamsat 01 Nov 17:01:40 17:04:43 20° 57° (ENE) 17:07:46 145.90 MHz
SO-50 01 Nov 17:22:53 17:27:07 31° 15° (NNE) 17:31:27 436.795 FM
JAS-2 01 Nov 17:32:36 17:39:13 66° 66° (ENE) 17:46:39 435.800 - 435.900 CW/SSB, 435.910 FM
UOSAT-12 01 Nov 17:58:47 18:02:49 27° 359° (N) 18:06:52 437.025 FM, 437.400 FM
HO-68 01 Nov 17:59:07 18:02:18 14° 24° (NNE) 18:05:29 435.675 MHz FM
Uosat F 01 Nov 18:19:47 18:23:48 24° 269° (W) 18:27:51 435.120 FM
SO-67 01 Nov 18:31:07 18:33:32 18° 60° (ENE) 18:35:57 435.3500 MHz FM
Hamsat 01 Nov 18:36:06 18:40:16 69° 257° (WSW) 18:44:28 145.90 MHz
KITSAT 1 01 Nov 18:38:13 18:46:14 60° 33° (NNE) 18:54:13 435.175 FM
OPAL 01 Nov 18:44:43 18:49:18 36° 99° (E) 18:53:51 ?
AO-7 01 Nov 18:45:08 18:51:20 23° 274° (W) 18:57:37 29.400 - 29.500 MHz
SO-50 01 Nov 19:03:35 19:08:23 71° 38° (NE) 19:13:16 436.795 FM
STRAND 1 01 Nov 19:05:41 19:08:05 13° 83° (E) 19:10:28 ?
